STARLINK-11472, 62067

Orbit data source: Space-Track

STARLINK-11472, 62067 is a payload satellite owned by SpaceX/Seattle (US) in LEO that was launched on Sun, 24 Nov 2024 UTC via an FALCON 9 launch vehicle from the Air Force Western Test Range (AFWTR). Payload-class satellites include a variety of spacecraft equipped with specific instruments for various scientific and technological missions. These include communications satellites like Starlink; space stations such as the ISS; scientific satellites like the Hubble; Earth observation satellites from companies like Planet Labs, Umbra, and HawkEye 360; GPS; miniature CubeSats for education and research; and military/defense satellites.

Loading next visibility...
Identifier
62067, 2024-217L
Orbit
LEO
Country
Flag of USUS
Related business
Manufacturer
SpaceX/Seattle
Mission
Operational Commercial Communications
Bus & Motor
STARLINK V2MD, Unknown motor
Mass
960 kg wet, ~910 kg dry
Launch date (UTC)
2024-11-24 (1 year ago)
Launch vehicle
FALCON 9
Launch site
Air Force Western Test Range (AFWTR)
Object type
Payload
Rocket body
Debris
Shape & HBR
Box + 2 Pan, 18.1 m
Radar Cross Section
36.964 m², Large (>1 m²)

Expand to show TLE details & history
Last TLE update: 9 hours ago

TLE from 9 hours ago
0 STARLINK-11472
1 62067U 24217L   26095.27163318  .00291152  00000-0  23170-2 0  9995
2 62067  53.1566 300.5733 0000832 241.5140 118.5794 15.69789479 79275
Epoch: 2026-04-05T06:31Z
TLE epoch observation values (Epoch: 2026-04-05T06:31:09.106Z)
Latitude
-0.00005°
Longitude
9.20588°
Altitude
360.682 km
Speed
7.694 km/s
True Right ascension
20h 02m 17s
True Declination
0° 00' 00"
Sunlit
Object was in daylight at epoch
Visualization orbit readout
Latitude
Unknown
Longitude
Unknown
Altitude
Unknown
Speed
Unknown
Apparent Right ascension
Unknown
Apparent Declination
Unknown
Sunlit
N/A
Visualization observer readout
Local Sidereal Time
21:56:23
Azimuth
Unknown
Elevation
Unknown
Doppler factor
Unknown
Orbital elements
Apogee altitude
360.321 km
Perigee altitude
359.2 km
Semi-major axis
6,737.898 km
Eccentricity
0.00008
Inclination
53.1566°
RAAN
300.5733°
Arg. of periapsis
241.514°
True anomaly
118.58777°
Mean anomaly
118.5794°
Eccentric anomaly
118.58359°
Mean motion
3.92425 °/min
Orbital period
91.74 mins
BSTAR
0.002317
Loading maneuver chart data...
Computing Atmospheric mass density...
Loading historical data...
Loading historical data...
Loading historical data...
Loading historical data...
Loading historical data...
Loading historical data...
Loading historical data...

Documentation

Showing up to 5 results
|